FW5172 Weather Reports


time (UTC)temp
F
wind
direction
speed
knots
gust
knots
rain 1hr
in
rain 24hr
in
rain mn
in
humidity
%
barometer
mb
20260505051558 49 261 0.0 0.0 0.00 0.00 0.00 90 1017.3
20260505051058 49 262 0.0 0.0 0.00 0.00 0.00 90 1017.2
20260505050557 49 268 0.0 0.0 0.00 0.00 0.00 90 1017.3
20260505041544 50 262 0.0 0.0 0.00 0.00 0.00 87 1017.2
20260505041045 51 239 0.0 0.0 0.00 0.00 0.00 87 1017.2
20260505040541 51 262 0.0 0.0 0.00 0.00 0.00 87 1017.2
20260505040040 51 265 0.0 0.0 0.00 0.00 0.00 86 1017.2
20260505035539 51 252 0.0 0.0 0.00 0.00 0.00 85 1017.2
20260505035041 52 252 0.0 0.0 0.00 0.00 0.00 84 1017.2
20260505034537 52 252 0.0 0.0 0.00 0.00 0.00 84 1017.3
20260505034038 52 251 0.0 0.0 0.00 0.00 0.00 83 1017.4
20260505033536 52 251 0.0 0.0 0.00 0.00 0.00 84 1017.5
20260505033100 52 251 0.0 0.0 0.00 0.00 0.00 84 1017.5
20260505032536 53 251 0.0 0.0 0.00 0.00 0.00 83 1017.5
20260505032034 53 252 0.0 0.0 0.00 0.00 0.00 83 1017.5
20260505031537 53 252 0.0 0.0 0.00 0.00 0.00 82 1017.5
20260505031033 54 259 0.0 0.0 0.00 0.00 0.00 81 1017.5
20260505030533 54 259 0.0 0.0 0.00 0.00 0.00 81 1017.5
20260505030032 54 251 0.0 0.0 0.00 0.00 0.00 79 1017.5
20260505025532 55 251 0.0 0.0 0.00 0.00 0.00 78 1017.5
20260505025030 55 251 0.0 0.0 0.00 0.00 0.00 78 1017.6
20260505024531 55 269 0.0 0.0 0.00 0.00 0.00 78 1017.6
20260505024029 56 269 0.0 0.0 0.00 0.00 0.00 76 1017.6
20260505023528 56 269 0.0 0.0 0.00 0.00 0.00 75 1017.6
20260505023028 57 269 0.0 0.9 0.00 0.00 0.00 75 1017.5
20260505022530 57 262 0.0 0.9 0.00 0.00 0.00 73 1017.5
20260505022027 57 282 0.0 0.9 0.00 0.00 0.00 72 1017.4
20260505021528 58 255 0.0 0.9 0.00 0.00 0.00 73 1017.3
20260505021029 58 251 0.0 0.9 0.00 0.00 0.00 71 1017.4
20260505020525 59 250 0.0 0.9 0.00 0.00 0.00 70 1017.4
20260505020024 59 250 0.0 0.9 0.00 0.00 0.00 69 1017.2
20260505015524 59 259 0.0 0.9 0.00 0.00 0.00 68 1017.3
20260505015023 60 266 0.0 0.9 0.00 0.00 0.00 67 1017.3
20260505014522 60 266 0.0 0.9 0.00 0.00 0.00 66 1017.1
20260505014021 61 241 0.0 0.9 0.00 0.00 0.00 65 1017.0
20260505013521 61 241 0.0 0.0 0.00 0.00 0.00 63 1016.9
20260505013021 62 241 0.0 0.9 0.00 0.00 0.00 60 1016.9
20260505012520 62 241 0.0 0.9 0.00 0.00 0.00 57 1016.9
20260505012019 63 238 0.0 0.0 0.00 0.00 0.00 56 1016.8
20260505011521 63 238 0.0 0.0 0.00 0.00 0.00 57 1016.8
20260505011018 64 237 0.0 0.0 0.00 0.00 0.00 54 1016.8
20260505010518 64 238 0.0 0.0 0.00 0.00 0.00 54 1016.8
20260505010018 64 259 0.0 0.9 0.00 0.00 0.00 54 1016.6
20260505005517 65 264 0.0 0.9 0.00 0.00 0.00 53 1016.7
20260505005016 66 278 0.0 0.9 0.00 0.00 0.00 51 1016.7
20260505004531 67 248 0.0 0.9 0.00 0.00 0.00 48 1016.4
20260505004015 67 248 0.0 0.9 0.00 0.00 0.00 48 1016.3
20260505003515 68 248 0.0 0.9 0.00 0.00 0.00 47 1016.2
20260505003014 68 247 0.0 0.9 0.00 0.00 0.00 47 1016.2
20260505002513 68 139 0.0 2.6 0.00 0.00 0.00 46 1016.2
20260505002012 68 136 0.0 2.6 0.00 0.00 0.00 45 1016.2
20260505001512 69 200 0.0 2.6 0.00 0.00 0.00 45 1016.4
20260505001013 69 158 0.0 3.5 0.00 0.00 0.00 45 1016.3
20260505000510 69 217 0.0 5.2 0.00 0.00 0.00 45 1016.2
20260505000014 69 146 0.0 2.6 0.00 0.00 0.00 44 1016.0
20260504235510 69 198 0.0 2.6 0.00 0.00 0.00 45 1016.0
20260504235009 70 171 0.0 2.6 0.00 0.00 0.00 44 1016.0
20260504234510 70 175 0.0 1.7 0.00 0.00 0.00 43 1016.0
20260504234007 70 143 0.0 0.9 0.00 0.00 0.00 43 1015.8
20260504233607 70 188 0.0 0.9 0.00 0.00 0.00 42 1015.7
20260504233005 70 225 0.0 2.6 0.00 0.00 0.00 42 1015.6
20260504232505 71 212 0.0 3.5 0.00 0.00 0.00 41 1015.7
20260504232004 71 212 0.0 3.5 0.00 0.00 0.00 41 1015.8
20260504231513 71 142 0.0 3.5 0.00 0.00 0.00 41 1015.7
20260504231003 72 162 0.0 1.7 0.00 0.00 0.00 40 1015.8
20260504230502 72 164 0.0 4.3 0.00 0.00 0.00 41 1015.7
20260504230002 73 231 0.0 3.5 0.00 0.00 0.00 40 1015.7
20260504225502 73 226 0.0 3.5 0.00 0.00 0.00 38 1015.7
20260504225100 73 213 0.0 4.3 0.00 0.00 0.00 38 1015.6
20260504224607 74 183 0.9 3.5 0.00 0.00 0.00 37 1015.6
20260504224059 74 174 0.0 7.0 0.00 0.00 0.00 37 1015.6
20260504223558 75 165 0.9 7.0 0.00 0.00 0.00 36 1015.7
20260504223057 75 186 0.9 5.2 0.00 0.00 0.00 36 1015.7
20260504222557 75 126 1.7 5.2 0.00 0.00 0.00 36 1015.7
20260504222057 75 209 1.7 3.5 0.00 0.00 0.00 37 1015.8
20260504221604 75 140 0.0 9.6 0.00 0.00 0.00 37 1015.8
20260504221054 75 199 1.7 9.6 0.00 0.00 0.00 34 1015.7
20260504220554 75 141 2.6 8.7 0.00 0.00 0.00 34 1015.7
20260504220055 75 146 1.7 10.4 0.00 0.00 0.00 36 1015.6
20260504215553 75 193 2.6 11.3 0.00 0.00 0.00 35 1015.8
20260504215050 76 212 1.7 11.3 0.00 0.00 0.00 35 1015.7
20260504214552 76 167 0.9 12.2 0.00 0.00 0.00 38 1015.6
20260504214047 76 169 4.3 12.2 0.00 0.00 0.00 34 1015.7
20260504213546 77 231 0.9 9.6 0.00 0.00 0.00 36 1015.6
20260504213052 76 220 1.7 10.4 0.00 0.00 0.00 35 1015.7
20260504212545 77 278 1.7 10.4 0.00 0.00 0.00 35 1015.6
20260504212044 77 279 3.5 10.4 0.00 0.00 0.00 35 1015.5
20260504211542 77 190 3.5 8.7 0.00 0.00 0.00 36 1015.6
20260504211041 77 224 1.7 7.8 0.00 0.00 0.00 34 1015.5
20260504210539 77 147 1.7 8.7 0.00 0.00 0.00 36 1015.5
20260504210049 78 176 2.6 7.8 0.00 0.00 0.00 33 1015.7
20260504205539 77 229 1.7 9.6 0.00 0.00 0.00 34 1015.7
20260504205039 77 220 0.0 7.8 0.00 0.00 0.00 36 1015.5
20260504204613 78 134 2.6 7.8 0.00 0.00 0.00 34 1015.7
20260504204035 78 105 2.6 6.1 0.00 0.00 0.00 35 1015.7
20260504203537 78 131 0.9 9.6 0.00 0.00 0.00 36 1015.8
20260504203132 77 179 2.6 9.6 0.00 0.00 0.00 36 1015.7
20260504202531 77 138 2.6 11.3 0.00 0.00 0.00 36 1015.8
20260504202030 77 134 1.7 11.3 0.00 0.00 0.00 36 1015.9
20260504201529 77 238 3.5 8.7 0.00 0.00 0.00 36 1016.1
20260504201028 77 212 2.6 10.4 0.00 0.00 0.00 36 1016.1
20260504200527 77 125 3.5 11.3 0.00 0.00 0.00 36 1016.2
20260504200031 77 131 1.7 7.8 0.00 0.00 0.00 35 1016.3
20260504195527 77 161 2.6 13.0 0.00 0.00 0.00 35 1016.4
20260504195023 77 175 2.6 9.6 0.00 0.00 0.00 34 1016.4
20260504194523 77 201 0.9 7.0 0.00 0.00 0.00 36 1016.4
20260504194025 77 258 2.6 9.6 0.00 0.00 0.00 34 1016.5
20260504193522 78 205 1.7 7.0 0.00 0.00 0.00 36 1016.6
20260504193023 77 161 0.0 6.1 0.00 0.00 0.00 36 1016.6
20260504192521 77 266 0.9 9.6 0.00 0.00 0.00 36 1016.7
20260504192018 76 243 2.6 9.6 0.00 0.00 0.00 36 1016.7
20260504191517 76 157 0.0 9.6 0.00 0.00 0.00 40 1016.8
20260504191016 76 139 1.7 10.4 0.00 0.00 0.00 36 1016.9
20260504190514 76 119 3.5 10.4 0.00 0.00 0.00 36 1016.9
20260504190013 76 262 0.9 7.8 0.00 0.00 0.00 37 1016.9
20260504185514 76 209 0.9 9.6 0.00 0.00 0.00 37 1017.0
20260504185012 75 182 2.6 9.6 0.00 0.00 0.00 37 1017.1
20260504184508 75 136 1.7 7.0 0.00 0.00 0.00 37 1017.3
20260504184107 75 139 1.7 11.3 0.00 0.00 0.00 36 1017.4
20260504183506 75 172 3.5 11.3 0.00 0.00 0.00 38 1017.5
20260504183005 75 84 2.6 10.4 0.00 0.00 0.00 36 1017.7
20260504182504 75 127 3.5 10.4 0.00 0.00 0.00 36 1017.7
20260504182001 75 92 0.0 6.1 0.00 0.00 0.00 39 1017.8
20260504181501 75 266 0.0 7.0 0.00 0.00 0.00 37 1017.8
20260504181059 75 197 1.7 7.0 0.00 0.00 0.00 38 1017.9
20260504180600 74 265 1.7 6.1 0.00 0.00 0.00 38 1017.9
20260504180057 74 232 2.6 6.1 0.00 0.00 0.00 37 1017.9
20260504175557 74 108 1.7 6.1 0.00 0.00 0.00 38 1018.1
20260504175054 73 117 1.7 9.6 0.00 0.00 0.00 40 1018.2
20260504174553 73 98 2.6 9.6 0.00 0.00 0.00 37 1018.2
20260504174053 73 316 0.0 6.1 0.00 0.00 0.00 36 1018.2
20260504173551 73 268 0.9 7.8 0.00 0.00 0.00 37 1018.3
20260504173052 73 117 3.5 7.8 0.00 0.00 0.00 35 1018.3
20260504172549 73 232 0.0 7.0 0.00 0.00 0.00 37 1018.3
20260504172049 73 193 2.6 7.0 0.00 0.00 0.00 35 1018.4
20260504171549 72 165 0.0 4.3 0.00 0.00 0.00 35 1018.4
20260504171047 72 120 1.7 5.2 0.00 0.00 0.00 35 1018.5
20260504170546 72 120 1.7 7.0 0.00 0.00 0.00 36 1018.5
20260504151014 66 40 0.9 3.5 0.00 0.00 0.00 48 1020.5
20260504150512 65 72 0.0 2.6 0.00 0.00 0.00 50 1020.7
20260504141055 61 27 1.7 3.5 0.00 0.00 0.00 58 1020.8
20260504140555 60 43 0.9 3.5 0.00 0.00 0.00 59 1020.6
20260504130535 54 275 0.0 0.9 0.00 0.00 0.00 71 1020.3
20260504110504 36 223 0.0 0.9 0.00 0.00 0.00 98 1019.8
20260504100559 37 262 0.0 0.0 0.00 0.00 0.00 97 1020.1
20260504081539 39 265 0.0 0.9 0.00 0.00 0.00 97 1019.8
20260504081035 39 241 0.0 0.0 0.00 0.00 0.00 97 1019.8
20260504080534 39 241 0.0 0.0 0.00 0.00 0.00 96 1019.8